Lincoln City Weather Center

Moon Phase Calendar



Online Cameras

 


      

Current Conditions in Lincoln City
1/16/2021 7:45:40 AM

44°F
Feels Like 38
Clouds
Humidity
95%
Pressure
30.36"
Wind
7 mph (NE)
Dew Point
43°F
UV Index
0/10 (Low)
Visibility
6 mi

Hourly Forecast

Date & Time Sat, Jan 16
7:00 AM
Sat, Jan 16
8:00 AM
Sat, Jan 16
9:00 AM
Sat, Jan 16
10:00 AM
Sat, Jan 16
11:00 AM
Sat, Jan 16
12:00 PM
Sat, Jan 16
1:00 PM
Sat, Jan 16
2:00 PM
Sat, Jan 16
3:00 PM
Sat, Jan 16
4:00 PM
Sat, Jan 16
5:00 PM
Sat, Jan 16
6:00 PM
Sat, Jan 16
7:00 PM
Sat, Jan 16
8:00 PM
Sat, Jan 16
9:00 PM
Sat, Jan 16
10:00 PM
Sat, Jan 16
11:00 PM
Sun, Jan 17
12:00 AM
Sun, Jan 17
1:00 AM
Sun, Jan 17
2:00 AM
Sun, Jan 17
3:00 AM
Sun, Jan 17
4:00 AM
Sun, Jan 17
5:00 AM
Sun, Jan 17
6:00 AM
Sun, Jan 17
7:00 AM
Sun, Jan 17
8:00 AM
Sun, Jan 17
9:00 AM
Sun, Jan 17
10:00 AM
Sun, Jan 17
11:00 AM
Sun, Jan 17
12:00 PM
Sun, Jan 17
1:00 PM
Sun, Jan 17
2:00 PM
Sun, Jan 17
3:00 PM
Sun, Jan 17
4:00 PM
Sun, Jan 17
5:00 PM
Sun, Jan 17
6:00 PM
Sun, Jan 17
7:00 PM
Sun, Jan 17
8:00 PM
Sun, Jan 17
9:00 PM
Sun, Jan 17
10:00 PM
Sun, Jan 17
11:00 PM
Mon, Jan 18
12:00 AM
Mon, Jan 18
1:00 AM
Mon, Jan 18
2:00 AM
Mon, Jan 18
3:00 AM
Mon, Jan 18
4:00 AM
Mon, Jan 18
5:00 AM
Mon, Jan 18
6:00 AM
Condition
Clouds

Clouds

Clouds

Clouds

Clouds

Clouds

Clouds

Clouds

Clouds

Clouds

Clouds

Clouds

Clouds

Clouds

Clouds

Clouds

Clouds

Clouds

Clouds

Rain

Rain

Rain

Rain

Clouds

Clouds

Clouds

Clouds

Clouds

Clouds

Clouds

Clouds

Clouds

Clouds

Clouds

Clouds

Clouds

Clouds

Clouds

Clouds

Clouds

Clear

Clear

Clear

Clear

Clear

Clear

Clouds

Clouds
Temperature 44°F45°F47°F50°F51°F53°F53°F54°F54°F52°F50°F49°F49°F49°F49°F49°F49°F50°F50°F49°F49°F49°F49°F49°F49°F49°F50°F51°F51°F51°F51°F51°F50°F49°F48°F46°F46°F46°F44°F43°F43°F44°F44°F42°F41°F41°F41°F40°F
Feels Like 39°F40°F45°F47°F47°F50°F50°F51°F52°F51°F47°F46°F46°F46°F46°F45°F45°F47°F48°F47°F46°F46°F46°F47°F47°F48°F47°F46°F46°F46°F46°F45°F44°F43°F41°F40°F39°F39°F38°F37°F36°F35°F35°F35°F34°F35°F35°F35°F
Cloudiness 100%99%97%97%88%86%90%92%93%95%100%100%100%100%100%100%100%97%98%98%98%99%100%100%100%100%100%100%100%100%100%100%100%100%100%100%100%100%83%80%0%0%6%6%5%5%62%31%
Visibility 6 mi6 mi6 mi6 mi6 mi6 mi6 mi6 mi6 mi6 mi6 mi6 mi6 mi6 mi6 mi6 mi6 mi6 mi6 mi5 mi6 mi6 mi6 mi6 mi6 mi6 mi6 mi6 mi6 mi6 mi6 mi6 mi6 mi6 mi6 mi6 mi6 mi6 mi6 mi6 mi6 mi6 mi6 mi6 mi6 mi6 mi6 mi6 mi
Precipitation 0%0%0%0%0%0%0%0%0%0%0%0%0%0%0%0%4%15%31%52%75%83%69%61%49%44%28%12%0%0%0%0%0%0%0%0%0%0%0%0%0%0%0%0%0%0%0%0%
Humidity 95%87%81%78%73%66%65%65%70%76%79%82%85%83%81%82%84%82%83%88%92%91%92%93%93%94%94%91%89%88%86%85%85%86%88%89%89%87%88%88%88%88%87%87%86%85%85%84%
Dew Point 43°F41°F41°F43°F43°F43°F42°F43°F44°F45°F44°F44°F45°F45°F44°F43°F44°F45°F45°F46°F47°F47°F47°F47°F47°F48°F48°F49°F48°F48°F47°F47°F46°F45°F44°F43°F43°F42°F41°F40°F40°F40°F40°F39°F38°F37°F36°F36°F
Pressure 30.36"30.36"30.33"30.36"30.36"30.36"30.36"30.33"30.33"30.33"30.33"30.33"30.33"30.33"30.33"30.33"30.36"30.36"30.36"30.36"30.36"30.36"30.39"30.39"30.42"30.42"30.42"30.45"30.45"30.45"30.45"30.42"30.42"30.45"30.45"30.45"30.45"30.45"30.45"30.45"30.45"30.47"30.5"30.5"30.5"30.47"30.47"30.45"
Wind Speed 4.8 mph5 mph0.7 mph2.3 mph4.5 mph3.1 mph3.1 mph2 mph0.9 mph0.2 mph2.2 mph3.2 mph3 mph3.9 mph3.4 mph3.8 mph4.4 mph4.1 mph3.2 mph3 mph3.6 mph3.8 mph3.5 mph3 mph1.8 mph1.8 mph4.5 mph7.5 mph8 mph8.1 mph8.4 mph9.4 mph9.9 mph10 mph8.9 mph8.7 mph8.8 mph9 mph7.3 mph7.1 mph8.9 mph11.4 mph10.6 mph8.2 mph8 mph6 mph5.4 mph4.2 mph
Wind
Direction
111°
ESE
97°
E
98°
E
19°
NNE
340°
NNW
348°
NNW
359°
N

N
30°
NNE
122°
ESE
169°
S
134°
SE
127°
SE
131°
SE
139°
SE
153°
SSE
157°
SSE
172°
S
185°
S
181°
S
147°
SSE
154°
SSE
184°
S
185°
S
207°
SSW
316°
NW
346°
NNW
352°
N
356°
N
350°
N
358°
N
351°
N
357°
N
359°
N

N
14°
NNE
14°
NNE
16°
NNE
20°
NNE
21°
NNE
12°
NNE

N
21°
NNE
34°
NE
32°
NNE
30°
NNE
47°
NE
55°
NE

Daily Forecast

Date High Low Precip. Humidity
Today
Jan 16

Clouds
54 °F
44 °F
4%
66%
Sunday
Jan 17

Rain
51 °F
43 °F
83%
88%
Monday
Jan 18

Clear
50 °F
39 °F
0%
65%
Tuesday
Jan 19

Clouds
54 °F
41 °F
0%
52%
Wednesday
Jan 20

Clouds
53 °F
41 °F
0%
50%
Thursday
Jan 21

Rain
48 °F
40 °F
100%
80%
Friday
Jan 22

Clear
48 °F
38 °F
0%
73%
Saturday
Jan 23

Clear
47 °F
36 °F
0%
64%
Sunday
Jan 24

Rain
47 °F
36 °F
38%
60%
Monday
Jan 25

Rain
51 °F
40 °F
97%
54%
Tuesday
Jan 26

Rain
47 °F
44 °F
100%
81%
Wednesday
Jan 27

Rain
48 °F
43 °F
100%
84%
Thursday
Jan 28

Rain
49 °F
44 °F
100%
80%
Friday
Jan 29

Rain
50 °F
47 °F
87%
81%
Saturday
Jan 30

Rain
50 °F
43 °F
100%
79%
Sunday
Jan 31

Rain
48 °F
44 °F
100%
62%


Temperature 8-14 Day Outlook



Precipitation 8-14 Day Outlook




Quick Links
Lincoln City News
Lincoln City Photos
Lincoln City Videos




About Us
Contact Us
Site Map
Search Site
Advertise With Us
   
LincolnCity.USCoast.info
THE LINCOLN CITY WEBSITE

Copyright 2021, Coastal Town
Privacy    |    Legal